Year,Month,Day,Hour,Minute,Value (Times are PST for temperature in C)
2018,07,04,00,00,13.60
2018,07,04,00,01,13.70
2018,07,04,00,02,13.70
2018,07,04,00,03,13.80
2018,07,04,00,04,13.80
2018,07,04,00,05,13.80
2018,07,04,00,06,13.80
2018,07,04,00,07,13.80
2018,07,04,00,08,13.70
2018,07,04,00,09,13.70
2018,07,04,00,10,13.70
2018,07,04,00,11,13.70
2018,07,04,00,12,13.60
2018,07,04,00,13,13.60
2018,07,04,00,14,13.50
2018,07,04,00,15,13.50
2018,07,04,00,16,13.40
2018,07,04,00,17,13.40
2018,07,04,00,18,13.40
2018,07,04,00,19,13.40
2018,07,04,00,20,13.40
2018,07,04,00,21,13.30
2018,07,04,00,22,13.30
2018,07,04,00,23,13.30
2018,07,04,00,24,13.30
2018,07,04,00,25,13.20
2018,07,04,00,26,13.20
2018,07,04,00,27,13.20
2018,07,04,00,28,13.20
2018,07,04,00,29,13.20
2018,07,04,00,30,13.20
2018,07,04,00,31,13.20
2018,07,04,00,32,13.10
2018,07,04,00,33,13.10
2018,07,04,00,34,13.10
2018,07,04,00,35,13.10
2018,07,04,00,36,13.10
2018,07,04,00,37,13.10
2018,07,04,00,38,13.10
2018,07,04,00,39,13.10
2018,07,04,00,40,13.10
2018,07,04,00,41,13.10
2018,07,04,00,42,13.10
2018,07,04,00,43,13.10
2018,07,04,00,44,13.10
2018,07,04,00,45,13.10
2018,07,04,00,46,13.10
2018,07,04,00,47,13.10
2018,07,04,00,48,13.10
2018,07,04,00,49,13.10
2018,07,04,00,50,13.10
2018,07,04,00,51,13.10
2018,07,04,00,52,13.10
2018,07,04,00,53,13.10
2018,07,04,00,54,13.10
2018,07,04,00,55,13.10
2018,07,04,00,56,13.10
2018,07,04,00,57,13.10
2018,07,04,00,58,13.00
2018,07,04,00,59,13.00
2018,07,04,01,00,13.00
2018,07,04,01,01,12.90
2018,07,04,01,02,12.90
2018,07,04,01,03,12.90
2018,07,04,01,04,12.80
2018,07,04,01,05,12.80
2018,07,04,01,06,12.80
2018,07,04,01,07,12.80
2018,07,04,01,08,12.70
2018,07,04,01,09,12.70
2018,07,04,01,10,12.70
2018,07,04,01,11,12.70
2018,07,04,01,12,12.60
2018,07,04,01,13,12.60
2018,07,04,01,14,12.60
2018,07,04,01,15,12.50
2018,07,04,01,16,12.50
2018,07,04,01,17,12.40
2018,07,04,01,18,12.40
2018,07,04,01,19,12.40
2018,07,04,01,20,12.40
2018,07,04,01,21,12.30
2018,07,04,01,22,12.30
2018,07,04,01,23,12.30
2018,07,04,01,24,12.30
2018,07,04,01,25,12.30
2018,07,04,01,26,12.30
2018,07,04,01,27,12.20
2018,07,04,01,28,12.20
2018,07,04,01,29,12.20
2018,07,04,01,30,12.20
2018,07,04,01,31,12.20
2018,07,04,01,32,12.20
2018,07,04,01,33,12.20
2018,07,04,01,34,12.10
2018,07,04,01,35,12.10
2018,07,04,01,36,12.10
2018,07,04,01,37,12.10
2018,07,04,01,38,12.10
2018,07,04,01,39,12.10
2018,07,04,01,40,12.10
2018,07,04,01,41,12.10
2018,07,04,01,42,12.10
2018,07,04,01,43,12.10
2018,07,04,01,44,12.10
2018,07,04,01,45,12.10
2018,07,04,01,46,12.10
2018,07,04,01,47,12.10
2018,07,04,01,48,12.10
2018,07,04,01,49,12.10
2018,07,04,01,50,12.10
2018,07,04,01,51,12.10
2018,07,04,01,52,12.00
2018,07,04,01,53,12.00
2018,07,04,01,54,12.00
2018,07,04,01,55,12.00
2018,07,04,01,56,12.00
2018,07,04,01,57,12.00
2018,07,04,01,58,12.00
2018,07,04,01,59,12.10
2018,07,04,02,00,12.10
2018,07,04,02,01,12.20
2018,07,04,02,02,12.20
2018,07,04,02,03,12.30
2018,07,04,02,04,12.30
2018,07,04,02,05,12.30
2018,07,04,02,06,12.40
2018,07,04,02,07,12.40
2018,07,04,02,08,12.40
2018,07,04,02,09,12.40
2018,07,04,02,10,12.50
2018,07,04,02,11,12.50
2018,07,04,02,12,12.60
2018,07,04,02,13,12.60
2018,07,04,02,14,12.70
2018,07,04,02,15,12.70
2018,07,04,02,16,12.80
2018,07,04,02,17,12.80
2018,07,04,02,18,12.80
2018,07,04,02,19,12.80
2018,07,04,02,20,12.80
2018,07,04,02,21,12.80
2018,07,04,02,22,12.70
2018,07,04,02,23,12.70
2018,07,04,02,24,12.60
2018,07,04,02,25,12.60
2018,07,04,02,26,12.50
2018,07,04,02,27,12.50
2018,07,04,02,28,12.40
2018,07,04,02,29,12.40
2018,07,04,02,30,12.30
2018,07,04,02,31,12.30
2018,07,04,02,32,12.30
2018,07,04,02,33,12.30
2018,07,04,02,34,12.40
2018,07,04,02,35,12.50
2018,07,04,02,36,12.60
2018,07,04,02,37,12.70
2018,07,04,02,38,12.70
2018,07,04,02,39,12.70
2018,07,04,02,40,12.70
2018,07,04,02,41,12.70
2018,07,04,02,42,12.60
2018,07,04,02,43,12.60
2018,07,04,02,44,12.60
2018,07,04,02,45,12.50
2018,07,04,02,46,12.50
2018,07,04,02,47,12.50
2018,07,04,02,48,12.60
2018,07,04,02,49,12.70
2018,07,04,02,50,12.80
2018,07,04,02,51,12.90
2018,07,04,02,52,13.00
2018,07,04,02,53,13.00
2018,07,04,02,54,13.20
2018,07,04,02,55,13.30
2018,07,04,02,56,13.30
2018,07,04,02,57,13.40
2018,07,04,02,58,13.50
2018,07,04,02,59,13.60
2018,07,04,03,00,13.60
2018,07,04,03,01,13.60
2018,07,04,03,02,13.60
2018,07,04,03,03,13.70
2018,07,04,03,04,13.60
2018,07,04,03,05,13.60
2018,07,04,03,06,13.60
2018,07,04,03,07,13.50
2018,07,04,03,08,13.40
2018,07,04,03,09,13.40
2018,07,04,03,10,13.30
2018,07,04,03,11,13.30
2018,07,04,03,12,13.20
2018,07,04,03,13,13.20
2018,07,04,03,14,13.20
2018,07,04,03,15,13.20
2018,07,04,03,16,13.20
2018,07,04,03,17,13.20
2018,07,04,03,18,13.20
2018,07,04,03,19,13.20
2018,07,04,03,20,13.20
2018,07,04,03,21,13.20
2018,07,04,03,22,13.20
2018,07,04,03,23,13.10
2018,07,04,03,24,13.10
2018,07,04,03,25,13.10
2018,07,04,03,26,13.10
2018,07,04,03,27,13.10
2018,07,04,03,28,13.00
2018,07,04,03,29,13.00
2018,07,04,03,30,13.00
2018,07,04,03,31,13.00
2018,07,04,03,32,13.00
2018,07,04,03,33,13.00
2018,07,04,03,34,13.00
2018,07,04,03,35,13.00
2018,07,04,03,36,13.00
2018,07,04,03,37,13.10
2018,07,04,03,38,13.10
2018,07,04,03,39,13.10
2018,07,04,03,40,13.10
2018,07,04,03,41,13.20
2018,07,04,03,42,13.20
2018,07,04,03,43,13.10
2018,07,04,03,44,13.10
2018,07,04,03,45,13.10
2018,07,04,03,46,13.10
2018,07,04,03,47,13.00
2018,07,04,03,48,13.00
2018,07,04,03,49,13.00
2018,07,04,03,50,13.00
2018,07,04,03,51,12.90
2018,07,04,03,52,12.90
2018,07,04,03,53,13.00
2018,07,04,03,54,13.00
2018,07,04,03,55,13.10
2018,07,04,03,56,13.20
2018,07,04,03,57,13.30
2018,07,04,03,58,13.50
2018,07,04,03,59,13.60
2018,07,04,04,00,13.70
2018,07,04,04,01,13.80
2018,07,04,04,02,13.80
2018,07,04,04,03,13.90
2018,07,04,04,04,13.90
2018,07,04,04,05,14.00
2018,07,04,04,06,14.00
2018,07,04,04,07,14.10
2018,07,04,04,08,14.10
2018,07,04,04,09,14.10
2018,07,04,04,10,14.10
2018,07,04,04,11,14.10
2018,07,04,04,12,14.10
2018,07,04,04,13,14.10
2018,07,04,04,14,14.10
2018,07,04,04,15,14.10
2018,07,04,04,16,14.00
2018,07,04,04,17,13.90
2018,07,04,04,18,13.80
2018,07,04,04,19,13.80
2018,07,04,04,20,13.80
2018,07,04,04,21,13.70
2018,07,04,04,22,13.70
2018,07,04,04,23,13.70
2018,07,04,04,24,13.60
2018,07,04,04,25,13.60
2018,07,04,04,26,13.60
2018,07,04,04,27,13.60
2018,07,04,04,28,13.50
2018,07,04,04,29,13.50
2018,07,04,04,30,13.50
2018,07,04,04,31,13.40
2018,07,04,04,32,13.40
2018,07,04,04,33,13.40
2018,07,04,04,34,13.40
2018,07,04,04,35,13.30
2018,07,04,04,36,13.30
2018,07,04,04,37,13.30
2018,07,04,04,38,13.30
2018,07,04,04,39,13.40
2018,07,04,04,40,13.40
2018,07,04,04,41,13.40
2018,07,04,04,42,13.40
2018,07,04,04,43,13.50
2018,07,04,04,44,13.50
2018,07,04,04,45,13.50
2018,07,04,04,46,13.60
2018,07,04,04,47,13.60
2018,07,04,04,48,13.70
2018,07,04,04,49,13.80
2018,07,04,04,50,13.80
2018,07,04,04,51,13.90
2018,07,04,04,52,14.00
2018,07,04,04,53,14.00
2018,07,04,04,54,14.00
2018,07,04,04,55,14.10
2018,07,04,04,56,14.10
2018,07,04,04,57,14.10
2018,07,04,04,58,14.10
2018,07,04,04,59,14.10
2018,07,04,05,00,14.10
2018,07,04,05,01,14.20
2018,07,04,05,02,14.20
2018,07,04,05,03,14.20
2018,07,04,05,04,14.20
2018,07,04,05,05,14.20
2018,07,04,05,06,14.30
2018,07,04,05,07,14.30
2018,07,04,05,08,14.30
2018,07,04,05,09,14.40
2018,07,04,05,10,14.40
2018,07,04,05,11,14.40
2018,07,04,05,12,14.40
2018,07,04,05,13,14.30
2018,07,04,05,14,14.30
2018,07,04,05,15,14.30
2018,07,04,05,16,14.30
2018,07,04,05,17,14.30
2018,07,04,05,18,14.30
2018,07,04,05,19,14.30
2018,07,04,05,20,14.30
2018,07,04,05,21,14.40
2018,07,04,05,22,14.40
2018,07,04,05,23,14.50
2018,07,04,05,24,14.60
2018,07,04,05,25,14.60
2018,07,04,05,26,14.70
2018,07,04,05,27,14.70
2018,07,04,05,28,14.80
2018,07,04,05,29,14.80
2018,07,04,05,30,14.80
2018,07,04,05,31,14.80
2018,07,04,05,32,14.90
2018,07,04,05,33,14.90
2018,07,04,05,34,14.90
2018,07,04,05,35,14.90
2018,07,04,05,36,14.90
2018,07,04,05,37,15.00
2018,07,04,05,38,15.00
2018,07,04,05,39,15.00
2018,07,04,05,40,15.00
2018,07,04,05,41,15.10
2018,07,04,05,42,15.10
2018,07,04,05,43,15.10
2018,07,04,05,44,15.10
2018,07,04,05,45,15.10
2018,07,04,05,46,15.10
2018,07,04,05,47,15.10
2018,07,04,05,48,15.10
2018,07,04,05,49,15.10
2018,07,04,05,50,15.10
2018,07,04,05,51,15.10
2018,07,04,05,52,15.10
2018,07,04,05,53,15.10
2018,07,04,05,54,15.20
2018,07,04,05,55,15.20
2018,07,04,05,56,15.20
2018,07,04,05,57,15.20
2018,07,04,05,58,15.20
2018,07,04,05,59,15.20
2018,07,04,06,00,15.20
2018,07,04,06,01,15.20
2018,07,04,06,02,15.30
2018,07,04,06,03,15.30
2018,07,04,06,04,15.30
2018,07,04,06,05,15.30
2018,07,04,06,06,15.40
2018,07,04,06,07,15.40
2018,07,04,06,08,15.50
2018,07,04,06,09,15.50
2018,07,04,06,10,15.60
2018,07,04,06,11,15.60
2018,07,04,06,12,15.70
2018,07,04,06,13,15.70
2018,07,04,06,14,15.80
2018,07,04,06,15,15.80
2018,07,04,06,16,15.80
2018,07,04,06,17,15.80
2018,07,04,06,18,15.80
2018,07,04,06,19,15.90
2018,07,04,06,20,15.90
2018,07,04,06,21,15.90
2018,07,04,06,22,15.90
2018,07,04,06,23,16.00
2018,07,04,06,24,16.00
2018,07,04,06,25,16.00
2018,07,04,06,26,16.00
2018,07,04,06,27,16.10
2018,07,04,06,28,16.10
2018,07,04,06,29,16.10
2018,07,04,06,30,16.10
2018,07,04,06,31,16.20
2018,07,04,06,32,16.20
2018,07,04,06,33,16.30
2018,07,04,06,34,16.30
2018,07,04,06,35,16.30
2018,07,04,06,36,16.30
2018,07,04,06,37,16.30
2018,07,04,06,38,16.30
2018,07,04,06,39,16.30
2018,07,04,06,40,16.30
2018,07,04,06,41,16.30
2018,07,04,06,42,16.30
2018,07,04,06,43,16.30
2018,07,04,06,44,16.30
2018,07,04,06,45,16.30
2018,07,04,06,46,16.40
2018,07,04,06,47,16.40
2018,07,04,06,48,16.40
2018,07,04,06,49,16.40
2018,07,04,06,50,16.40
2018,07,04,06,51,16.50
2018,07,04,06,52,16.50
2018,07,04,06,53,16.50
2018,07,04,06,54,16.60
2018,07,04,06,55,16.60
2018,07,04,06,56,16.60
2018,07,04,06,57,16.60
2018,07,04,06,58,16.70
2018,07,04,06,59,16.70
2018,07,04,07,00,16.70
2018,07,04,07,01,16.70
2018,07,04,07,02,16.80
2018,07,04,07,03,16.80
2018,07,04,07,04,16.80
2018,07,04,07,05,16.80
2018,07,04,07,06,16.90
2018,07,04,07,07,16.90
2018,07,04,07,08,16.90
2018,07,04,07,09,16.90
2018,07,04,07,10,16.90
2018,07,04,07,11,16.90
2018,07,04,07,12,17.00
2018,07,04,07,13,17.00
2018,07,04,07,14,17.00
2018,07,04,07,15,17.00
2018,07,04,07,16,17.00
2018,07,04,07,17,17.10
2018,07,04,07,18,17.10
2018,07,04,07,19,17.10
2018,07,04,07,20,17.10
2018,07,04,07,21,17.20
2018,07,04,07,22,17.20
2018,07,04,07,23,17.20
2018,07,04,07,24,17.30
2018,07,04,07,25,17.30
2018,07,04,07,26,17.30
2018,07,04,07,27,17.30
2018,07,04,07,28,17.40
2018,07,04,07,29,17.40
2018,07,04,07,30,17.40
2018,07,04,07,31,17.40
2018,07,04,07,32,17.50
2018,07,04,07,33,17.50
2018,07,04,07,34,17.50
2018,07,04,07,35,17.60
2018,07,04,07,36,17.60
2018,07,04,07,37,17.70
2018,07,04,07,38,17.70
2018,07,04,07,39,17.70
2018,07,04,07,40,17.70
2018,07,04,07,41,17.80
2018,07,04,07,42,17.80
2018,07,04,07,43,17.80
2018,07,04,07,44,17.80
2018,07,04,07,45,17.80
2018,07,04,07,46,17.80
2018,07,04,07,47,17.80
2018,07,04,07,48,17.80
2018,07,04,07,49,17.80
2018,07,04,07,50,17.80
2018,07,04,07,51,17.80
2018,07,04,07,52,17.80
2018,07,04,07,53,17.80
2018,07,04,07,54,17.80
2018,07,04,07,55,17.80
2018,07,04,07,56,17.80
2018,07,04,07,57,17.90
2018,07,04,07,58,17.90
2018,07,04,07,59,17.90
2018,07,04,08,00,17.90
2018,07,04,08,01,17.90
2018,07,04,08,02,17.90
2018,07,04,08,03,17.90
2018,07,04,08,04,18.00
2018,07,04,08,05,18.00
2018,07,04,08,06,18.10
2018,07,04,08,07,18.10
2018,07,04,08,08,18.20
2018,07,04,08,09,18.20
2018,07,04,08,10,18.20
2018,07,04,08,11,18.30
2018,07,04,08,12,18.30
2018,07,04,08,13,18.30
2018,07,04,08,14,18.30
2018,07,04,08,15,18.30
2018,07,04,08,16,18.30
2018,07,04,08,17,18.40
2018,07,04,08,18,18.40
2018,07,04,08,19,18.40
2018,07,04,08,20,18.50
2018,07,04,08,21,18.50
2018,07,04,08,22,18.50
2018,07,04,08,23,18.50
2018,07,04,08,24,18.50
2018,07,04,08,25,18.50
2018,07,04,08,26,18.60
2018,07,04,08,27,18.60
2018,07,04,08,28,18.60
2018,07,04,08,29,18.60
2018,07,04,08,30,18.70
2018,07,04,08,31,18.80
2018,07,04,08,32,18.80
2018,07,04,08,33,18.90
2018,07,04,08,34,18.90
2018,07,04,08,35,19.00
2018,07,04,08,36,19.10
2018,07,04,08,37,19.20
2018,07,04,08,38,19.30
2018,07,04,08,39,19.40
2018,07,04,08,40,19.50
2018,07,04,08,41,19.60
2018,07,04,08,42,19.60
2018,07,04,08,43,19.60
2018,07,04,08,44,19.60
2018,07,04,08,45,19.60
2018,07,04,08,46,19.60
2018,07,04,08,47,19.70
2018,07,04,08,48,19.70
2018,07,04,08,49,19.80
2018,07,04,08,50,19.80
2018,07,04,08,51,19.90
2018,07,04,08,52,19.90
2018,07,04,08,53,19.80
2018,07,04,08,54,19.80
2018,07,04,08,55,19.90
2018,07,04,08,56,19.90
2018,07,04,08,57,19.90
2018,07,04,08,58,19.90
2018,07,04,08,59,19.80
2018,07,04,09,00,19.80
2018,07,04,09,01,19.80
2018,07,04,09,02,19.90
2018,07,04,09,03,19.90
2018,07,04,09,04,20.00
2018,07,04,09,05,20.00
2018,07,04,09,06,20.10
2018,07,04,09,07,20.10
2018,07,04,09,08,20.10
2018,07,04,09,09,20.10
2018,07,04,09,10,20.20
2018,07,04,09,11,20.20
2018,07,04,09,12,20.20
2018,07,04,09,13,20.20
2018,07,04,09,14,20.20
2018,07,04,09,15,20.30
2018,07,04,09,16,20.30
2018,07,04,09,17,20.30
2018,07,04,09,18,20.20
2018,07,04,09,19,20.30
2018,07,04,09,20,20.30
2018,07,04,09,21,20.40
2018,07,04,09,22,20.50
2018,07,04,09,23,20.60
2018,07,04,09,24,20.60
2018,07,04,09,25,20.60
2018,07,04,09,26,20.70
2018,07,04,09,27,20.70
2018,07,04,09,28,20.70
2018,07,04,09,29,20.70
2018,07,04,09,30,20.70
2018,07,04,09,31,20.70
2018,07,04,09,32,20.60
2018,07,04,09,33,20.60
2018,07,04,09,34,20.60
2018,07,04,09,35,20.60
2018,07,04,09,36,20.60
2018,07,04,09,37,20.70
2018,07,04,09,38,20.80
2018,07,04,09,39,20.80
2018,07,04,09,40,20.90
2018,07,04,09,41,20.90
2018,07,04,09,42,21.00
2018,07,04,09,43,21.00
2018,07,04,09,44,21.00
2018,07,04,09,45,21.00
2018,07,04,09,46,21.00
2018,07,04,09,47,21.00
2018,07,04,09,48,21.00
2018,07,04,09,49,21.00
2018,07,04,09,50,20.90
2018,07,04,09,51,20.80
2018,07,04,09,52,20.80
2018,07,04,09,53,20.70
2018,07,04,09,54,20.60
2018,07,04,09,55,20.60
2018,07,04,09,56,20.50
2018,07,04,09,57,20.40
2018,07,04,09,58,20.40
2018,07,04,09,59,20.30
2018,07,04,10,00,20.40
2018,07,04,10,01,20.40
2018,07,04,10,02,20.40
2018,07,04,10,03,20.50
2018,07,04,10,04,20.50
2018,07,04,10,05,20.60
2018,07,04,10,06,20.70
2018,07,04,10,07,20.80
2018,07,04,10,08,20.80
2018,07,04,10,09,20.90
2018,07,04,10,10,20.90
2018,07,04,10,11,20.90
2018,07,04,10,12,21.00
2018,07,04,10,13,21.00
2018,07,04,10,14,21.10
2018,07,04,10,15,21.20
2018,07,04,10,16,21.20
2018,07,04,10,17,21.30
2018,07,04,10,18,21.30
2018,07,04,10,19,21.40
2018,07,04,10,20,21.40
2018,07,04,10,21,21.40
2018,07,04,10,22,21.30
2018,07,04,10,23,21.20
2018,07,04,10,24,21.20
2018,07,04,10,25,21.20
2018,07,04,10,26,21.20
2018,07,04,10,27,21.20
2018,07,04,10,28,21.20
2018,07,04,10,29,21.30
2018,07,04,10,30,21.30
2018,07,04,10,31,21.30
2018,07,04,10,32,21.30
2018,07,04,10,33,21.30
2018,07,04,10,34,21.30
2018,07,04,10,35,21.30
2018,07,04,10,36,21.30
2018,07,04,10,37,21.30
2018,07,04,10,38,21.20
2018,07,04,10,39,21.10
2018,07,04,10,40,21.10
2018,07,04,10,41,21.00
2018,07,04,10,42,21.00
2018,07,04,10,43,21.00
2018,07,04,10,44,21.00
2018,07,04,10,45,21.00
2018,07,04,10,46,21.10
2018,07,04,10,47,21.20
2018,07,04,10,48,21.20
2018,07,04,10,49,21.10
2018,07,04,10,50,21.10
2018,07,04,10,51,21.10
2018,07,04,10,52,21.10
2018,07,04,10,53,21.10
2018,07,04,10,54,21.10
2018,07,04,10,55,21.20
2018,07,04,10,56,21.20
2018,07,04,10,57,21.30
2018,07,04,10,58,21.30
2018,07,04,10,59,21.40
2018,07,04,11,00,21.50
2018,07,04,11,01,21.60
2018,07,04,11,02,21.60
2018,07,04,11,03,21.70
2018,07,04,11,04,21.70
2018,07,04,11,05,21.80
2018,07,04,11,06,21.80
2018,07,04,11,07,21.70
2018,07,04,11,08,21.60
2018,07,04,11,09,21.60
2018,07,04,11,10,21.40
2018,07,04,11,11,21.30
2018,07,04,11,12,21.30
2018,07,04,11,13,21.30
2018,07,04,11,14,21.40
2018,07,04,11,15,21.30
2018,07,04,11,16,21.30
2018,07,04,11,17,21.30
2018,07,04,11,18,21.30
2018,07,04,11,19,21.30
2018,07,04,11,20,21.20
2018,07,04,11,21,21.20
2018,07,04,11,22,21.20
2018,07,04,11,23,21.20
2018,07,04,11,24,21.30
2018,07,04,11,25,21.30
2018,07,04,11,26,21.30
2018,07,04,11,27,21.30
2018,07,04,11,28,21.30
2018,07,04,11,29,21.40
2018,07,04,11,30,21.40
2018,07,04,11,31,21.40
2018,07,04,11,32,21.40
2018,07,04,11,33,21.40
2018,07,04,11,34,21.40
2018,07,04,11,35,21.40
2018,07,04,11,36,21.40
2018,07,04,11,37,21.40
2018,07,04,11,38,21.50
2018,07,04,11,39,21.50
2018,07,04,11,40,21.60
2018,07,04,11,41,21.60
2018,07,04,11,42,21.70
2018,07,04,11,43,21.70
2018,07,04,11,44,21.70
2018,07,04,11,45,21.70
2018,07,04,11,46,21.70
2018,07,04,11,47,21.70
2018,07,04,11,48,21.70
2018,07,04,11,49,21.60
2018,07,04,11,50,21.60
2018,07,04,11,51,21.60
2018,07,04,11,52,21.60
2018,07,04,11,53,21.70
2018,07,04,11,54,21.70
2018,07,04,11,55,21.70
2018,07,04,11,56,21.70
2018,07,04,11,57,21.80
2018,07,04,11,58,21.80
2018,07,04,11,59,21.80
2018,07,04,12,00,21.80
2018,07,04,12,01,21.70
2018,07,04,12,02,21.70
2018,07,04,12,03,21.70
2018,07,04,12,04,21.70
2018,07,04,12,05,21.80
2018,07,04,12,06,22.00
2018,07,04,12,07,22.10
2018,07,04,12,08,22.20
2018,07,04,12,09,22.20
2018,07,04,12,10,22.30
2018,07,04,12,11,22.30
2018,07,04,12,12,22.40
2018,07,04,12,13,22.40
2018,07,04,12,14,22.40
2018,07,04,12,15,22.40
2018,07,04,12,16,22.50
2018,07,04,12,17,22.50
2018,07,04,12,18,22.50
2018,07,04,12,19,22.60
2018,07,04,12,20,22.60
2018,07,04,12,21,22.50
2018,07,04,12,22,22.50
2018,07,04,12,23,22.60
2018,07,04,12,24,22.70
2018,07,04,12,25,22.70
2018,07,04,12,26,22.80
2018,07,04,12,27,22.80
2018,07,04,12,28,22.70
2018,07,04,12,29,22.60
2018,07,04,12,30,22.60
2018,07,04,12,31,22.60
2018,07,04,12,32,22.60
2018,07,04,12,33,22.60
2018,07,04,12,34,22.60
2018,07,04,12,35,22.60
2018,07,04,12,36,22.60
2018,07,04,12,37,22.50
2018,07,04,12,38,22.50
2018,07,04,12,39,22.40
2018,07,04,12,40,22.50
2018,07,04,12,41,22.50
2018,07,04,12,42,22.60
2018,07,04,12,43,22.70
2018,07,04,12,44,22.80
2018,07,04,12,45,22.80
2018,07,04,12,46,22.90
2018,07,04,12,47,23.10
2018,07,04,12,48,23.10
2018,07,04,12,49,23.10
2018,07,04,12,50,23.00
2018,07,04,12,51,22.90
2018,07,04,12,52,22.90
2018,07,04,12,53,22.90
2018,07,04,12,54,22.90
2018,07,04,12,55,23.00
2018,07,04,12,56,23.00
2018,07,04,12,57,23.10
2018,07,04,12,58,23.20
2018,07,04,12,59,23.10
2018,07,04,13,00,23.10
2018,07,04,13,01,23.20
2018,07,04,13,02,23.20
2018,07,04,13,03,23.30
2018,07,04,13,04,23.30
2018,07,04,13,05,23.30
2018,07,04,13,06,23.40
2018,07,04,13,07,23.40
2018,07,04,13,08,23.40
2018,07,04,13,09,23.40
2018,07,04,13,10,23.50
2018,07,04,13,11,23.40
2018,07,04,13,12,23.40
2018,07,04,13,13,23.30
2018,07,04,13,14,23.30
2018,07,04,13,15,23.20
2018,07,04,13,16,23.20
2018,07,04,13,17,23.10
2018,07,04,13,18,23.10
2018,07,04,13,19,23.10
2018,07,04,13,20,23.10
2018,07,04,13,21,23.10
2018,07,04,13,22,23.00
2018,07,04,13,23,23.00
2018,07,04,13,24,23.00
2018,07,04,13,25,23.10
2018,07,04,13,26,23.10
2018,07,04,13,27,23.20
2018,07,04,13,28,23.20
2018,07,04,13,29,23.30
2018,07,04,13,30,23.30
2018,07,04,13,31,23.40
2018,07,04,13,32,23.40
2018,07,04,13,33,23.40
2018,07,04,13,34,23.50
2018,07,04,13,35,23.50
2018,07,04,13,36,23.50
2018,07,04,13,37,23.50
2018,07,04,13,38,23.50
2018,07,04,13,39,23.50
2018,07,04,13,40,23.50
2018,07,04,13,41,23.50
2018,07,04,13,42,23.50
2018,07,04,13,43,23.50
2018,07,04,13,44,23.50
2018,07,04,13,45,23.50
2018,07,04,13,46,23.50
2018,07,04,13,47,23.50
2018,07,04,13,48,23.50
2018,07,04,13,49,23.60
2018,07,04,13,50,23.60
2018,07,04,13,51,23.60
2018,07,04,13,52,23.60
2018,07,04,13,53,23.60
2018,07,04,13,54,23.60
2018,07,04,13,55,23.60
2018,07,04,13,56,23.60
2018,07,04,13,57,23.60
2018,07,04,13,58,23.60
2018,07,04,13,59,23.50
2018,07,04,14,00,23.50
2018,07,04,14,01,23.40
2018,07,04,14,02,23.40
2018,07,04,14,03,23.40
2018,07,04,14,04,23.40
2018,07,04,14,05,23.40
2018,07,04,14,06,23.40
2018,07,04,14,07,23.40
2018,07,04,14,08,23.40
2018,07,04,14,09,23.40
2018,07,04,14,10,23.40
2018,07,04,14,11,23.40
2018,07,04,14,12,23.40
2018,07,04,14,13,23.50
2018,07,04,14,14,23.60
2018,07,04,14,15,23.60
2018,07,04,14,16,23.70
2018,07,04,14,17,23.80
2018,07,04,14,18,23.90
2018,07,04,14,19,24.00
2018,07,04,14,20,24.10
2018,07,04,14,21,24.20
2018,07,04,14,22,24.30
2018,07,04,14,23,24.40
2018,07,04,14,24,24.40
2018,07,04,14,25,24.40
2018,07,04,14,26,24.30
2018,07,04,14,27,24.30
2018,07,04,14,28,24.20
2018,07,04,14,29,24.10
2018,07,04,14,30,24.10
2018,07,04,14,31,24.00
2018,07,04,14,32,23.90
2018,07,04,14,33,23.90
2018,07,04,14,34,23.80
2018,07,04,14,35,23.90
2018,07,04,14,36,24.00
2018,07,04,14,37,24.00
2018,07,04,14,38,24.00
2018,07,04,14,39,23.80
2018,07,04,14,40,23.80
2018,07,04,14,41,23.80
2018,07,04,14,42,23.70
2018,07,04,14,43,23.70
2018,07,04,14,44,23.70
2018,07,04,14,45,23.60
2018,07,04,14,46,23.60
2018,07,04,14,47,23.60
2018,07,04,14,48,23.70
2018,07,04,14,49,23.80
2018,07,04,14,50,23.80
2018,07,04,14,51,23.80
2018,07,04,14,52,23.80
2018,07,04,14,53,23.80
2018,07,04,14,54,23.80
2018,07,04,14,55,23.80
2018,07,04,14,56,23.80
2018,07,04,14,57,23.80
2018,07,04,14,58,23.80
2018,07,04,14,59,23.80
2018,07,04,15,00,23.70
2018,07,04,15,01,23.70
2018,07,04,15,02,23.70
2018,07,04,15,03,23.70
2018,07,04,15,04,23.60
2018,07,04,15,05,23.50
2018,07,04,15,06,23.50
2018,07,04,15,07,23.40
2018,07,04,15,08,23.40
2018,07,04,15,09,23.40
2018,07,04,15,10,23.40
2018,07,04,15,11,23.50
2018,07,04,15,12,23.50
2018,07,04,15,13,23.60
2018,07,04,15,14,23.60
2018,07,04,15,15,23.70
2018,07,04,15,16,23.80
2018,07,04,15,17,23.90
2018,07,04,15,18,24.00
2018,07,04,15,19,24.10
2018,07,04,15,20,24.20
2018,07,04,15,21,24.30
2018,07,04,15,22,24.20
2018,07,04,15,23,24.20
2018,07,04,15,24,24.30
2018,07,04,15,25,24.30
2018,07,04,15,26,24.30
2018,07,04,15,27,24.40
2018,07,04,15,28,24.40
2018,07,04,15,29,24.40
2018,07,04,15,30,24.30
2018,07,04,15,31,24.20
2018,07,04,15,32,24.10
2018,07,04,15,33,24.00
2018,07,04,15,34,23.90
2018,07,04,15,35,23.80
2018,07,04,15,36,23.70
2018,07,04,15,37,23.70
2018,07,04,15,38,23.60
2018,07,04,15,39,23.60
2018,07,04,15,40,23.60
2018,07,04,15,41,23.60
2018,07,04,15,42,23.60
2018,07,04,15,43,23.60
2018,07,04,15,44,23.60
2018,07,04,15,45,23.60
2018,07,04,15,46,23.60
2018,07,04,15,47,23.60
2018,07,04,15,48,23.70
2018,07,04,15,49,23.70
2018,07,04,15,50,23.70
2018,07,04,15,51,23.60
2018,07,04,15,52,23.60
2018,07,04,15,53,23.60
2018,07,04,15,54,23.60
2018,07,04,15,55,23.60
2018,07,04,15,56,23.60
2018,07,04,15,57,23.70
2018,07,04,15,58,23.70
2018,07,04,15,59,23.80
2018,07,04,16,00,23.80
2018,07,04,16,01,23.80
2018,07,04,16,02,23.90
2018,07,04,16,03,23.90
2018,07,04,16,04,24.00
2018,07,04,16,05,24.00
2018,07,04,16,06,24.10
2018,07,04,16,07,24.10
2018,07,04,16,08,24.20
2018,07,04,16,09,24.30
2018,07,04,16,10,24.30
2018,07,04,16,11,24.30
2018,07,04,16,12,24.30
2018,07,04,16,13,24.40
2018,07,04,16,14,24.30
2018,07,04,16,15,24.30
2018,07,04,16,16,24.20
2018,07,04,16,17,24.20
2018,07,04,16,18,24.20
2018,07,04,16,19,24.10
2018,07,04,16,20,24.00
2018,07,04,16,21,24.00
2018,07,04,16,22,23.90
2018,07,04,16,23,23.90
2018,07,04,16,24,23.90
2018,07,04,16,25,23.80
2018,07,04,16,26,23.90
2018,07,04,16,27,23.90
2018,07,04,16,28,24.00
2018,07,04,16,29,24.00
2018,07,04,16,30,24.10
2018,07,04,16,31,24.10
2018,07,04,16,32,24.10
2018,07,04,16,33,24.10
2018,07,04,16,34,24.10
2018,07,04,16,35,24.10
2018,07,04,16,36,24.10
2018,07,04,16,37,24.20
2018,07,04,16,38,24.20
2018,07,04,16,39,24.20
2018,07,04,16,40,24.20
2018,07,04,16,41,24.20
2018,07,04,16,42,24.20
2018,07,04,16,43,24.20
2018,07,04,16,44,24.20
2018,07,04,16,45,24.20
2018,07,04,16,46,24.20
2018,07,04,16,47,24.30
2018,07,04,16,48,24.20
2018,07,04,16,49,24.30
2018,07,04,16,50,24.20
2018,07,04,16,51,24.30
2018,07,04,16,52,24.30
2018,07,04,16,53,24.30
2018,07,04,16,54,24.30
2018,07,04,16,55,24.30
2018,07,04,16,56,24.30
2018,07,04,16,57,24.30
2018,07,04,16,58,24.30
2018,07,04,16,59,24.30
2018,07,04,17,00,24.30
2018,07,04,17,01,24.30
2018,07,04,17,02,24.30
2018,07,04,17,03,24.30
2018,07,04,17,04,24.30
2018,07,04,17,05,24.30
2018,07,04,17,06,24.30
2018,07,04,17,07,24.30
2018,07,04,17,08,24.20
2018,07,04,17,09,24.20
2018,07,04,17,10,24.20
2018,07,04,17,11,24.10
2018,07,04,17,12,24.10
2018,07,04,17,13,24.10
2018,07,04,17,14,24.10
2018,07,04,17,15,24.00
2018,07,04,17,16,24.00
2018,07,04,17,17,23.90
2018,07,04,17,18,23.90
2018,07,04,17,19,23.90